Year,Month,Day,Hour,Minute,Value (Times are PST for temperature in C)
2016,04,10,00,00,8.80
2016,04,10,00,01,8.80
2016,04,10,00,02,8.80
2016,04,10,00,03,8.70
2016,04,10,00,04,8.70
2016,04,10,00,05,8.70
2016,04,10,00,06,8.70
2016,04,10,00,07,8.70
2016,04,10,00,08,8.70
2016,04,10,00,09,8.70
2016,04,10,00,10,8.70
2016,04,10,00,11,8.70
2016,04,10,00,12,8.70
2016,04,10,00,13,8.70
2016,04,10,00,14,8.70
2016,04,10,00,15,8.70
2016,04,10,00,16,8.70
2016,04,10,00,17,8.60
2016,04,10,00,18,8.60
2016,04,10,00,19,8.60
2016,04,10,00,20,8.60
2016,04,10,00,21,8.50
2016,04,10,00,22,8.50
2016,04,10,00,23,8.50
2016,04,10,00,24,8.50
2016,04,10,00,25,8.40
2016,04,10,00,26,8.40
2016,04,10,00,27,8.40
2016,04,10,00,28,8.40
2016,04,10,00,29,8.30
2016,04,10,00,30,8.30
2016,04,10,00,31,8.30
2016,04,10,00,32,8.30
2016,04,10,00,33,8.30
2016,04,10,00,34,8.30
2016,04,10,00,35,8.20
2016,04,10,00,36,8.20
2016,04,10,00,37,8.20
2016,04,10,00,38,8.20
2016,04,10,00,39,8.20
2016,04,10,00,40,8.20
2016,04,10,00,41,8.20
2016,04,10,00,42,8.10
2016,04,10,00,43,8.10
2016,04,10,00,44,8.10
2016,04,10,00,45,8.10
2016,04,10,00,46,8.10
2016,04,10,00,47,8.00
2016,04,10,00,48,8.00
2016,04,10,00,49,8.00
2016,04,10,00,50,8.00
2016,04,10,00,51,7.90
2016,04,10,00,52,7.90
2016,04,10,00,53,7.90
2016,04,10,00,54,7.90
2016,04,10,00,55,7.90
2016,04,10,00,56,7.80
2016,04,10,00,57,7.80
2016,04,10,00,58,7.80
2016,04,10,00,59,7.80
2016,04,10,01,00,7.80
2016,04,10,01,01,7.80
2016,04,10,01,02,7.80
2016,04,10,01,03,7.80
2016,04,10,01,04,7.80
2016,04,10,01,05,7.80
2016,04,10,01,06,7.80
2016,04,10,01,07,7.80
2016,04,10,01,08,7.80
2016,04,10,01,09,7.80
2016,04,10,01,10,7.80
2016,04,10,01,11,7.80
2016,04,10,01,12,7.80
2016,04,10,01,13,7.80
2016,04,10,01,14,7.80
2016,04,10,01,15,7.80
2016,04,10,01,16,7.80
2016,04,10,01,17,7.80
2016,04,10,01,18,7.80
2016,04,10,01,19,7.80
2016,04,10,01,20,7.80
2016,04,10,01,21,7.80
2016,04,10,01,22,7.80
2016,04,10,01,23,7.80
2016,04,10,01,24,7.80
2016,04,10,01,25,7.80
2016,04,10,01,26,7.80
2016,04,10,01,27,7.90
2016,04,10,01,28,7.90
2016,04,10,01,29,7.90
2016,04,10,01,30,7.90
2016,04,10,01,31,8.00
2016,04,10,01,32,8.00
2016,04,10,01,33,8.00
2016,04,10,01,34,8.00
2016,04,10,01,35,8.00
2016,04,10,01,36,8.00
2016,04,10,01,37,8.00
2016,04,10,01,38,8.00
2016,04,10,01,39,8.00
2016,04,10,01,40,8.10
2016,04,10,01,41,8.10
2016,04,10,01,42,8.10
2016,04,10,01,43,8.10
2016,04,10,01,44,8.10
2016,04,10,01,45,8.20
2016,04,10,01,46,8.20
2016,04,10,01,47,8.20
2016,04,10,01,48,8.20
2016,04,10,01,49,8.20
2016,04,10,01,50,8.20
2016,04,10,01,51,8.20
2016,04,10,01,52,8.20
2016,04,10,01,53,8.20
2016,04,10,01,54,8.20
2016,04,10,01,55,8.20
2016,04,10,01,56,8.20
2016,04,10,01,57,8.20
2016,04,10,01,58,8.10
2016,04,10,01,59,8.10
2016,04,10,02,00,8.10
2016,04,10,02,01,8.10
2016,04,10,02,02,8.10
2016,04,10,02,03,8.00
2016,04,10,02,04,8.00
2016,04,10,02,05,8.00
2016,04,10,02,06,7.90
2016,04,10,02,07,7.90
2016,04,10,02,08,7.90
2016,04,10,02,09,7.90
2016,04,10,02,10,7.90
2016,04,10,02,11,7.90
2016,04,10,02,12,7.90
2016,04,10,02,13,7.90
2016,04,10,02,14,7.90
2016,04,10,02,15,7.90
2016,04,10,02,16,7.90
2016,04,10,02,17,7.90
2016,04,10,02,18,7.90
2016,04,10,02,19,7.90
2016,04,10,02,20,7.90
2016,04,10,02,21,7.90
2016,04,10,02,22,7.80
2016,04,10,02,23,7.80
2016,04,10,02,24,7.80
2016,04,10,02,25,7.80
2016,04,10,02,26,7.80
2016,04,10,02,27,7.80
2016,04,10,02,28,7.80
2016,04,10,02,29,7.80
2016,04,10,02,30,7.80
2016,04,10,02,31,7.70
2016,04,10,02,32,7.70
2016,04,10,02,33,7.70
2016,04,10,02,34,7.60
2016,04,10,02,35,7.60
2016,04,10,02,36,7.60
2016,04,10,02,37,7.60
2016,04,10,02,38,7.50
2016,04,10,02,39,7.50
2016,04,10,02,40,7.50
2016,04,10,02,41,7.40
2016,04,10,02,42,7.40
2016,04,10,02,43,7.40
2016,04,10,02,44,7.30
2016,04,10,02,45,7.30
2016,04,10,02,46,7.30
2016,04,10,02,47,7.30
2016,04,10,02,48,7.30
2016,04,10,02,49,7.30
2016,04,10,02,50,7.30
2016,04,10,02,51,7.30
2016,04,10,02,52,7.30
2016,04,10,02,53,7.30
2016,04,10,02,54,7.30
2016,04,10,02,55,7.30
2016,04,10,02,56,7.30
2016,04,10,02,57,7.30
2016,04,10,02,58,7.30
2016,04,10,02,59,7.30
2016,04,10,03,00,7.20
2016,04,10,03,01,7.20
2016,04,10,03,02,7.20
2016,04,10,03,03,7.20
2016,04,10,03,04,7.10
2016,04,10,03,05,7.10
2016,04,10,03,06,7.10
2016,04,10,03,07,7.10
2016,04,10,03,08,7.00
2016,04,10,03,09,7.00
2016,04,10,03,10,7.00
2016,04,10,03,11,7.00
2016,04,10,03,12,7.00
2016,04,10,03,13,7.00
2016,04,10,03,14,6.90
2016,04,10,03,15,6.90
2016,04,10,03,16,6.90
2016,04,10,03,17,6.90
2016,04,10,03,18,6.90
2016,04,10,03,19,6.90
2016,04,10,03,20,6.80
2016,04,10,03,21,6.80
2016,04,10,03,22,6.80
2016,04,10,03,23,6.80
2016,04,10,03,24,6.80
2016,04,10,03,25,6.80
2016,04,10,03,26,6.70
2016,04,10,03,27,6.70
2016,04,10,03,28,6.70
2016,04,10,03,29,6.70
2016,04,10,03,30,6.70
2016,04,10,03,31,6.70
2016,04,10,03,32,6.70
2016,04,10,03,33,6.60
2016,04,10,03,34,6.60
2016,04,10,03,35,6.60
2016,04,10,03,36,6.60
2016,04,10,03,37,6.60
2016,04,10,03,38,6.60
2016,04,10,03,39,6.60
2016,04,10,03,40,6.60
2016,04,10,03,41,6.60
2016,04,10,03,42,6.50
2016,04,10,03,43,6.40
2016,04,10,03,44,6.40
2016,04,10,03,45,6.40
2016,04,10,03,46,6.40
2016,04,10,03,47,6.40
2016,04,10,03,48,6.40
2016,04,10,03,49,6.40
2016,04,10,03,50,6.30
2016,04,10,03,51,6.30
2016,04,10,03,52,6.30
2016,04,10,03,53,6.30
2016,04,10,03,54,6.30
2016,04,10,03,55,6.30
2016,04,10,03,56,6.30
2016,04,10,03,57,6.30
2016,04,10,03,58,6.30
2016,04,10,03,59,6.30
2016,04,10,04,00,6.30
2016,04,10,04,01,6.30
2016,04,10,04,02,6.30
2016,04,10,04,03,6.30
2016,04,10,04,04,6.30
2016,04,10,04,05,6.30
2016,04,10,04,06,6.30
2016,04,10,04,07,6.30
2016,04,10,04,08,6.30
2016,04,10,04,09,6.30
2016,04,10,04,10,6.30
2016,04,10,04,11,6.30
2016,04,10,04,12,6.20
2016,04,10,04,13,6.20
2016,04,10,04,14,6.20
2016,04,10,04,15,6.20
2016,04,10,04,16,6.20
2016,04,10,04,17,6.20
2016,04,10,04,18,6.20
2016,04,10,04,19,6.20
2016,04,10,04,20,6.20
2016,04,10,04,21,6.20
2016,04,10,04,22,6.20
2016,04,10,04,23,6.20
2016,04,10,04,24,6.20
2016,04,10,04,25,6.20
2016,04,10,04,26,6.20
2016,04,10,04,27,6.20
2016,04,10,04,28,6.20
2016,04,10,04,29,6.10
2016,04,10,04,30,6.10
2016,04,10,04,31,6.10
2016,04,10,04,32,6.10
2016,04,10,04,33,6.10
2016,04,10,04,34,6.10
2016,04,10,04,35,6.10
2016,04,10,04,36,6.10
2016,04,10,04,37,6.10
2016,04,10,04,38,6.10
2016,04,10,04,39,6.10
2016,04,10,04,40,6.10
2016,04,10,04,41,6.10
2016,04,10,04,42,6.10
2016,04,10,04,43,6.10
2016,04,10,04,44,6.10
2016,04,10,04,45,6.10
2016,04,10,04,46,6.10
2016,04,10,04,47,6.10
2016,04,10,04,48,6.10
2016,04,10,04,49,6.10
2016,04,10,04,50,6.00
2016,04,10,04,51,6.00
2016,04,10,04,52,6.00
2016,04,10,04,53,6.00
2016,04,10,04,54,6.00
2016,04,10,04,55,6.00
2016,04,10,04,56,6.00
2016,04,10,04,57,5.90
2016,04,10,04,58,5.90
2016,04,10,04,59,5.90
2016,04,10,05,00,5.90
2016,04,10,05,01,5.90
2016,04,10,05,02,5.90
2016,04,10,05,03,5.90
2016,04,10,05,04,5.80
2016,04,10,05,05,5.80
2016,04,10,05,06,5.80
2016,04,10,05,07,5.80
2016,04,10,05,08,5.80
2016,04,10,05,09,5.80
2016,04,10,05,10,5.80
2016,04,10,05,11,5.80
2016,04,10,05,12,5.80
2016,04,10,05,13,5.70
2016,04,10,05,14,5.70
2016,04,10,05,15,5.70
2016,04,10,05,16,5.70
2016,04,10,05,17,5.70
2016,04,10,05,18,5.70
2016,04,10,05,19,5.70
2016,04,10,05,20,5.70
2016,04,10,05,21,5.80
2016,04,10,05,22,5.80
2016,04,10,05,23,5.80
2016,04,10,05,24,5.70
2016,04,10,05,25,5.70
2016,04,10,05,26,5.70
2016,04,10,05,27,5.70
2016,04,10,05,28,5.70
2016,04,10,05,29,5.70
2016,04,10,05,30,5.70
2016,04,10,05,31,5.70
2016,04,10,05,32,5.70
2016,04,10,05,33,5.70
2016,04,10,05,34,5.70
2016,04,10,05,35,5.70
2016,04,10,05,36,5.70
2016,04,10,05,37,5.70
2016,04,10,05,38,5.70
2016,04,10,05,39,5.60
2016,04,10,05,40,5.60
2016,04,10,05,41,5.60
2016,04,10,05,42,5.60
2016,04,10,05,43,5.60
2016,04,10,05,44,5.60
2016,04,10,05,45,5.60
2016,04,10,05,46,5.50
2016,04,10,05,47,5.50
2016,04,10,05,48,5.50
2016,04,10,05,49,5.50
2016,04,10,05,50,5.50
2016,04,10,05,51,5.50
2016,04,10,05,52,5.50
2016,04,10,05,53,5.40
2016,04,10,05,54,5.40
2016,04,10,05,55,5.40
2016,04,10,05,56,5.40
2016,04,10,05,57,5.40
2016,04,10,05,58,5.40
2016,04,10,05,59,5.40
2016,04,10,06,00,5.40
2016,04,10,06,01,5.40
2016,04,10,06,02,5.30
2016,04,10,06,03,5.30
2016,04,10,06,04,5.30
2016,04,10,06,05,5.30
2016,04,10,06,06,5.40
2016,04,10,06,07,5.40
2016,04,10,06,08,5.40
2016,04,10,06,09,5.40
2016,04,10,06,10,5.40
2016,04,10,06,11,5.40
2016,04,10,06,12,5.40
2016,04,10,06,13,5.40
2016,04,10,06,14,5.40
2016,04,10,06,15,5.40
2016,04,10,06,16,5.30
2016,04,10,06,17,5.30
2016,04,10,06,18,5.30
2016,04,10,06,19,5.30
2016,04,10,06,20,5.30
2016,04,10,06,21,5.30
2016,04,10,06,22,5.20
2016,04,10,06,23,5.20
2016,04,10,06,24,5.20
2016,04,10,06,25,5.20
2016,04,10,06,26,5.20
2016,04,10,06,27,5.20
2016,04,10,06,28,5.10
2016,04,10,06,29,5.10
2016,04,10,06,30,5.10
2016,04,10,06,31,5.10
2016,04,10,06,32,5.10
2016,04,10,06,33,5.10
2016,04,10,06,34,5.10
2016,04,10,06,35,5.10
2016,04,10,06,36,5.10
2016,04,10,06,37,5.10
2016,04,10,06,38,5.10
2016,04,10,06,39,5.10
2016,04,10,06,40,5.10
2016,04,10,06,41,5.10
2016,04,10,06,42,5.10
2016,04,10,06,43,5.10
2016,04,10,06,44,5.10
2016,04,10,06,45,5.10
2016,04,10,06,46,5.20
2016,04,10,06,47,5.20
2016,04,10,06,48,5.20
2016,04,10,06,49,5.20
2016,04,10,06,50,5.20
2016,04,10,06,51,5.20
2016,04,10,06,52,5.30
2016,04,10,06,53,5.30
2016,04,10,06,54,5.30
2016,04,10,06,55,5.30
2016,04,10,06,56,5.30
2016,04,10,06,57,5.30
2016,04,10,06,58,5.30
2016,04,10,06,59,5.30
2016,04,10,07,00,5.30
2016,04,10,07,01,5.30
2016,04,10,07,02,5.30
2016,04,10,07,03,5.40
2016,04,10,07,04,5.40
2016,04,10,07,05,5.50
2016,04,10,07,06,5.50
2016,04,10,07,07,5.50
2016,04,10,07,08,5.60
2016,04,10,07,09,5.70
2016,04,10,07,10,5.70
2016,04,10,07,11,5.80
2016,04,10,07,12,5.90
2016,04,10,07,13,6.00
2016,04,10,07,14,6.10
2016,04,10,07,15,6.20
2016,04,10,07,16,6.30
2016,04,10,07,17,6.40
2016,04,10,07,18,6.50
2016,04,10,07,19,6.60
2016,04,10,07,20,6.70
2016,04,10,07,21,6.70
2016,04,10,07,22,6.80
2016,04,10,07,23,6.80
2016,04,10,07,24,6.80
2016,04,10,07,25,6.90
2016,04,10,07,26,7.00
2016,04,10,07,27,7.00
2016,04,10,07,28,7.10
2016,04,10,07,29,7.10
2016,04,10,07,30,7.20
2016,04,10,07,31,7.30
2016,04,10,07,32,7.30
2016,04,10,07,33,7.30
2016,04,10,07,34,7.40
2016,04,10,07,35,7.50
2016,04,10,07,36,7.50
2016,04,10,07,37,7.60
2016,04,10,07,38,7.60
2016,04,10,07,39,7.70
2016,04,10,07,40,7.70
2016,04,10,07,41,7.70
2016,04,10,07,42,7.80
2016,04,10,07,43,7.80
2016,04,10,07,44,7.80
2016,04,10,07,45,7.80
2016,04,10,07,46,7.90
2016,04,10,07,47,7.90
2016,04,10,07,48,7.90
2016,04,10,07,49,7.90
2016,04,10,07,50,8.00
2016,04,10,07,51,8.00
2016,04,10,07,52,8.00
2016,04,10,07,53,8.00
2016,04,10,07,54,8.10
2016,04,10,07,55,8.10
2016,04,10,07,56,8.10
2016,04,10,07,57,8.20
2016,04,10,07,58,8.20
2016,04,10,07,59,8.20
2016,04,10,08,00,8.20
2016,04,10,08,01,8.20
2016,04,10,08,02,8.20
2016,04,10,08,03,8.20
2016,04,10,08,04,8.20
2016,04,10,08,05,8.30
2016,04,10,08,06,8.30
2016,04,10,08,07,8.30
2016,04,10,08,08,8.30
2016,04,10,08,09,8.30
2016,04,10,08,10,8.30
2016,04,10,08,11,8.40
2016,04,10,08,12,8.40
2016,04,10,08,13,8.40
2016,04,10,08,14,8.40
2016,04,10,08,15,8.40
2016,04,10,08,16,8.40
2016,04,10,08,17,8.50
2016,04,10,08,18,8.50
2016,04,10,08,19,8.50
2016,04,10,08,20,8.50
2016,04,10,08,21,8.50
2016,04,10,08,22,8.50
2016,04,10,08,23,8.50
2016,04,10,08,24,8.50
2016,04,10,08,25,8.50
2016,04,10,08,26,8.50
2016,04,10,08,27,8.50
2016,04,10,08,28,8.50
2016,04,10,08,29,8.60
2016,04,10,08,30,8.60
2016,04,10,08,31,8.60
2016,04,10,08,32,8.60
2016,04,10,08,33,8.60
2016,04,10,08,34,8.70
2016,04,10,08,35,8.70
2016,04,10,08,36,8.70
2016,04,10,08,37,8.70
2016,04,10,08,38,8.70
2016,04,10,08,39,8.70
2016,04,10,08,40,8.70
2016,04,10,08,41,8.70
2016,04,10,08,42,8.70
2016,04,10,08,43,8.70
2016,04,10,08,44,8.70
2016,04,10,08,45,8.70
2016,04,10,08,46,8.70
2016,04,10,08,47,8.70
2016,04,10,08,48,8.80
2016,04,10,08,49,8.80
2016,04,10,08,50,8.80
2016,04,10,08,51,8.90
2016,04,10,08,52,8.90
2016,04,10,08,53,8.90
2016,04,10,08,54,8.90
2016,04,10,08,55,8.90
2016,04,10,08,56,8.90
2016,04,10,08,57,9.00
2016,04,10,08,58,9.00
2016,04,10,08,59,9.00
2016,04,10,09,00,9.00
2016,04,10,09,01,9.00
2016,04,10,09,02,9.10
2016,04,10,09,03,9.10
2016,04,10,09,04,9.20
2016,04,10,09,05,9.20
2016,04,10,09,06,9.20
2016,04,10,09,07,9.20
2016,04,10,09,08,9.20
2016,04,10,09,09,9.20
2016,04,10,09,10,9.20
2016,04,10,09,11,9.30
2016,04,10,09,12,9.30
2016,04,10,09,13,9.30
2016,04,10,09,14,9.30
2016,04,10,09,15,9.30
2016,04,10,09,16,9.30
2016,04,10,09,17,9.30
2016,04,10,09,18,9.40
2016,04,10,09,19,9.40
2016,04,10,09,20,9.40
2016,04,10,09,21,9.50
2016,04,10,09,22,9.50
2016,04,10,09,23,9.50
2016,04,10,09,24,9.60
2016,04,10,09,25,9.60
2016,04,10,09,26,9.60
2016,04,10,09,27,9.60
2016,04,10,09,28,9.70
2016,04,10,09,29,9.60
2016,04,10,09,30,9.60
2016,04,10,09,31,9.70
2016,04,10,09,32,9.70
2016,04,10,09,33,9.70
2016,04,10,09,34,9.70
2016,04,10,09,35,9.70
2016,04,10,09,36,9.70
2016,04,10,09,37,9.80
2016,04,10,09,38,9.80
2016,04,10,09,39,9.80
2016,04,10,09,40,9.90
2016,04,10,09,41,9.90
2016,04,10,09,42,9.90
2016,04,10,09,43,9.90
2016,04,10,09,44,9.90
2016,04,10,09,45,10.00
2016,04,10,09,46,10.10
2016,04,10,09,47,10.10
2016,04,10,09,48,10.10
2016,04,10,09,49,10.10
2016,04,10,09,50,10.20
2016,04,10,09,51,10.10
2016,04,10,09,52,10.20
2016,04,10,09,53,10.20
2016,04,10,09,54,10.20
2016,04,10,09,55,10.30
2016,04,10,09,56,10.30
2016,04,10,09,57,10.30
2016,04,10,09,58,10.30
2016,04,10,09,59,10.30
2016,04,10,10,00,10.30
2016,04,10,10,01,10.30
2016,04,10,10,02,10.30
2016,04,10,10,03,10.30
2016,04,10,10,04,10.30
2016,04,10,10,05,10.40
2016,04,10,10,06,10.40
2016,04,10,10,07,10.40
2016,04,10,10,08,10.40
2016,04,10,10,09,10.40
2016,04,10,10,10,10.40
2016,04,10,10,11,10.40
2016,04,10,10,12,10.40
2016,04,10,10,13,10.50
2016,04,10,10,14,10.60
2016,04,10,10,15,10.60
2016,04,10,10,16,10.60
2016,04,10,10,17,10.60
2016,04,10,10,18,10.60
2016,04,10,10,19,10.60
2016,04,10,10,20,10.70
2016,04,10,10,21,10.70
2016,04,10,10,22,10.80
2016,04,10,10,23,10.80
2016,04,10,10,24,10.90
2016,04,10,10,25,10.90
2016,04,10,10,26,10.90
2016,04,10,10,27,11.00
2016,04,10,10,28,11.10
2016,04,10,10,29,11.10
2016,04,10,10,30,11.10
2016,04,10,10,31,11.20
2016,04,10,10,32,11.20
2016,04,10,10,33,11.30
2016,04,10,10,34,11.30
2016,04,10,10,35,11.40
2016,04,10,10,36,11.40
2016,04,10,10,37,11.40
2016,04,10,10,38,11.40
2016,04,10,10,39,11.40
2016,04,10,10,40,11.40
2016,04,10,10,41,11.40
2016,04,10,10,42,11.40
2016,04,10,10,43,11.40
2016,04,10,10,44,11.40
2016,04,10,10,45,11.40
2016,04,10,10,46,11.40
2016,04,10,10,47,11.40
2016,04,10,10,48,11.40
2016,04,10,10,49,11.40
2016,04,10,10,50,11.40
2016,04,10,10,51,11.50
2016,04,10,10,52,11.60
2016,04,10,10,53,11.60
2016,04,10,10,54,11.60
2016,04,10,10,55,11.60
2016,04,10,10,56,11.60
2016,04,10,10,57,11.40
2016,04,10,10,58,11.40
2016,04,10,10,59,11.40
2016,04,10,11,00,11.30
2016,04,10,11,01,11.30
2016,04,10,11,02,11.20
2016,04,10,11,03,11.30
2016,04,10,11,04,11.30
2016,04,10,11,05,11.30
2016,04,10,11,06,11.40
2016,04,10,11,07,11.40
2016,04,10,11,08,11.40
2016,04,10,11,09,11.60
2016,04,10,11,10,11.60
2016,04,10,11,11,11.70
2016,04,10,11,12,11.80
2016,04,10,11,13,11.80
2016,04,10,11,14,11.90
2016,04,10,11,15,11.90
2016,04,10,11,16,12.00
2016,04,10,11,17,12.10
2016,04,10,11,18,12.10
2016,04,10,11,19,12.10
2016,04,10,11,20,12.10
2016,04,10,11,21,12.10
2016,04,10,11,22,12.10
2016,04,10,11,23,12.20
2016,04,10,11,24,12.20
2016,04,10,11,25,12.20
2016,04,10,11,26,12.30
2016,04,10,11,27,12.30
2016,04,10,11,28,12.30
2016,04,10,11,29,12.40
2016,04,10,11,30,12.50
2016,04,10,11,31,12.50
2016,04,10,11,32,12.60
2016,04,10,11,33,12.60
2016,04,10,11,34,12.70
2016,04,10,11,35,12.70
2016,04,10,11,36,12.80
2016,04,10,11,37,12.80
2016,04,10,11,38,12.90
2016,04,10,11,39,13.00
2016,04,10,11,40,13.10
2016,04,10,11,41,13.20
2016,04,10,11,42,13.20
2016,04,10,11,43,13.20
2016,04,10,11,44,13.10
2016,04,10,11,45,13.00
2016,04,10,11,46,13.00
2016,04,10,11,47,12.90
2016,04,10,11,48,13.00
2016,04,10,11,49,13.00
2016,04,10,11,50,12.80
2016,04,10,11,51,12.80
2016,04,10,11,52,12.80
2016,04,10,11,53,12.80
2016,04,10,11,54,12.80
2016,04,10,11,55,12.90
2016,04,10,11,56,13.00
2016,04,10,11,57,13.00
2016,04,10,11,58,13.10
2016,04,10,11,59,13.10
2016,04,10,12,00,13.10
2016,04,10,12,01,13.20
2016,04,10,12,02,13.20
2016,04,10,12,03,13.30
2016,04,10,12,04,13.30
2016,04,10,12,05,13.40
2016,04,10,12,06,13.50
2016,04,10,12,07,13.50
2016,04,10,12,08,13.50
2016,04,10,12,09,13.40
2016,04,10,12,10,13.40
2016,04,10,12,11,13.40
2016,04,10,12,12,13.30
2016,04,10,12,13,13.30
2016,04,10,12,14,13.30
2016,04,10,12,15,13.30
2016,04,10,12,16,13.20
2016,04,10,12,17,13.20
2016,04,10,12,18,13.20
2016,04,10,12,19,13.30
2016,04,10,12,20,13.40
2016,04,10,12,21,13.60
2016,04,10,12,22,13.60
2016,04,10,12,23,13.60
2016,04,10,12,24,13.50
2016,04,10,12,25,13.40
2016,04,10,12,26,13.40
2016,04,10,12,27,13.40
2016,04,10,12,28,13.50
2016,04,10,12,29,13.60
2016,04,10,12,30,13.70
2016,04,10,12,31,13.70
2016,04,10,12,32,13.60
2016,04,10,12,33,13.70
2016,04,10,12,34,13.70
2016,04,10,12,35,13.70
2016,04,10,12,36,13.70
2016,04,10,12,37,13.60
2016,04,10,12,38,13.60
2016,04,10,12,39,13.60
2016,04,10,12,40,13.50
2016,04,10,12,41,13.50
2016,04,10,12,42,13.40
2016,04,10,12,43,13.30
2016,04,10,12,44,13.30
2016,04,10,12,45,13.30
2016,04,10,12,46,13.30
2016,04,10,12,47,13.20
2016,04,10,12,48,13.00
2016,04,10,12,49,13.00
2016,04,10,12,50,12.80
2016,04,10,12,51,12.70
2016,04,10,12,52,12.60
2016,04,10,12,53,12.50
2016,04,10,12,54,12.40
2016,04,10,12,55,12.30
2016,04,10,12,56,12.40
2016,04,10,12,57,12.50
2016,04,10,12,58,12.50
2016,04,10,12,59,12.50
2016,04,10,13,00,12.50
2016,04,10,13,01,12.50
2016,04,10,13,02,12.50
2016,04,10,13,03,12.50
2016,04,10,13,04,12.60
2016,04,10,13,05,12.60
2016,04,10,13,06,12.70
2016,04,10,13,07,12.80
2016,04,10,13,08,12.80
2016,04,10,13,09,12.80
2016,04,10,13,10,12.80
2016,04,10,13,11,12.80
2016,04,10,13,12,12.90
2016,04,10,13,13,12.90
2016,04,10,13,14,12.90
2016,04,10,13,15,12.90
2016,04,10,13,16,12.90
2016,04,10,13,17,12.90
2016,04,10,13,18,12.90
2016,04,10,13,19,12.90
2016,04,10,13,20,12.90
2016,04,10,13,21,13.00
2016,04,10,13,22,13.00
2016,04,10,13,23,12.90
2016,04,10,13,24,12.80
2016,04,10,13,25,12.80
2016,04,10,13,26,12.80
2016,04,10,13,27,12.80
2016,04,10,13,28,12.80
2016,04,10,13,29,12.90
2016,04,10,13,30,12.90
2016,04,10,13,31,13.00
2016,04,10,13,32,13.00
2016,04,10,13,33,13.00
2016,04,10,13,34,12.90
2016,04,10,13,35,12.80
2016,04,10,13,36,12.90
2016,04,10,13,37,12.90
2016,04,10,13,38,12.90
2016,04,10,13,39,12.90
2016,04,10,13,40,12.90
2016,04,10,13,41,12.80
2016,04,10,13,42,12.70
2016,04,10,13,43,12.60
2016,04,10,13,44,12.60
2016,04,10,13,45,12.70
2016,04,10,13,46,12.80
2016,04,10,13,47,12.90
2016,04,10,13,48,12.80
2016,04,10,13,49,12.80
2016,04,10,13,50,12.80
2016,04,10,13,51,12.80
2016,04,10,13,52,12.90
2016,04,10,13,53,12.90
2016,04,10,13,54,13.00
2016,04,10,13,55,13.00
2016,04,10,13,56,13.00
2016,04,10,13,57,12.90
2016,04,10,13,58,12.80
2016,04,10,13,59,12.80
2016,04,10,14,00,12.80
2016,04,10,14,01,12.80
2016,04,10,14,02,12.80
2016,04,10,14,03,12.90
2016,04,10,14,04,12.90
2016,04,10,14,05,13.00
2016,04,10,14,06,13.10
2016,04,10,14,07,13.20
2016,04,10,14,08,13.20
2016,04,10,14,09,13.20
2016,04,10,14,10,13.10
2016,04,10,14,11,13.00
2016,04,10,14,12,13.00
2016,04,10,14,13,12.90
2016,04,10,14,14,12.80
2016,04,10,14,15,12.70
2016,04,10,14,16,12.70
2016,04,10,14,17,12.60
2016,04,10,14,18,12.60
2016,04,10,14,19,12.60
2016,04,10,14,20,12.50
2016,04,10,14,21,12.30
2016,04,10,14,22,12.10
2016,04,10,14,23,12.00
2016,04,10,14,24,11.90
2016,04,10,14,25,11.80
2016,04,10,14,26,11.80
2016,04,10,14,27,11.80
2016,04,10,14,28,11.80
2016,04,10,14,29,11.80
2016,04,10,14,30,11.80
2016,04,10,14,31,11.80
2016,04,10,14,32,11.80
2016,04,10,14,33,11.90
2016,04,10,14,34,12.10
2016,04,10,14,35,12.20
2016,04,10,14,36,12.20
2016,04,10,14,37,12.30
2016,04,10,14,38,12.40
2016,04,10,14,39,12.60
2016,04,10,14,40,12.80
2016,04,10,14,41,13.00
2016,04,10,14,42,13.20
2016,04,10,14,43,13.30
2016,04,10,14,44,13.20
2016,04,10,14,45,13.10
2016,04,10,14,46,12.90
2016,04,10,14,47,12.80
2016,04,10,14,48,12.80
2016,04,10,14,49,12.80
2016,04,10,14,50,12.80
2016,04,10,14,51,12.80
2016,04,10,14,52,12.90
2016,04,10,14,53,13.00
2016,04,10,14,54,13.10
2016,04,10,14,55,13.20
2016,04,10,14,56,13.20
2016,04,10,14,57,13.20
2016,04,10,14,58,13.20
2016,04,10,14,59,13.00
2016,04,10,15,00,12.90
2016,04,10,15,01,12.80
2016,04,10,15,02,12.70
2016,04,10,15,03,12.70
2016,04,10,15,04,12.60
2016,04,10,15,05,12.60
2016,04,10,15,06,12.60
2016,04,10,15,07,12.60
2016,04,10,15,08,12.60
2016,04,10,15,09,12.70
2016,04,10,15,10,12.80
2016,04,10,15,11,12.70
2016,04,10,15,12,12.70
2016,04,10,15,13,12.60
2016,04,10,15,14,12.60
2016,04,10,15,15,12.80
2016,04,10,15,16,12.80
2016,04,10,15,17,12.80
2016,04,10,15,18,12.80
2016,04,10,15,19,12.90
2016,04,10,15,20,12.90
2016,04,10,15,21,13.00
2016,04,10,15,22,13.00
2016,04,10,15,23,13.10
2016,04,10,15,24,13.00
2016,04,10,15,25,12.90
2016,04,10,15,26,12.90
2016,04,10,15,27,12.90
2016,04,10,15,28,13.00
2016,04,10,15,29,12.90
2016,04,10,15,30,12.90
2016,04,10,15,31,12.90
2016,04,10,15,32,12.80
2016,04,10,15,33,12.80
2016,04,10,15,34,12.80
2016,04,10,15,35,12.80
2016,04,10,15,36,12.80
2016,04,10,15,37,12.80
2016,04,10,15,38,12.80
2016,04,10,15,39,12.80
2016,04,10,15,40,12.80
2016,04,10,15,41,12.80
2016,04,10,15,42,12.80
2016,04,10,15,43,12.80
2016,04,10,15,44,12.90
2016,04,10,15,45,12.90
2016,04,10,15,46,12.90
2016,04,10,15,47,12.90
2016,04,10,15,48,13.00
2016,04,10,15,49,13.10
2016,04,10,15,50,13.10
2016,04,10,15,51,13.10
2016,04,10,15,52,13.10
2016,04,10,15,53,13.00
2016,04,10,15,54,12.90
2016,04,10,15,55,12.80
2016,04,10,15,56,12.60
2016,04,10,15,57,12.50
2016,04,10,15,58,12.40
2016,04,10,15,59,12.40
2016,04,10,16,00,12.40
2016,04,10,16,01,12.40
2016,04,10,16,02,12.50
2016,04,10,16,03,12.60
2016,04,10,16,04,12.70
2016,04,10,16,05,12.80
2016,04,10,16,06,12.80
2016,04,10,16,07,12.80
2016,04,10,16,08,12.80
2016,04,10,16,09,12.70
2016,04,10,16,10,12.70
2016,04,10,16,11,12.70
2016,04,10,16,12,12.60
2016,04,10,16,13,12.50
2016,04,10,16,14,12.50
2016,04,10,16,15,12.60
2016,04,10,16,16,12.60
2016,04,10,16,17,12.60
2016,04,10,16,18,12.50
2016,04,10,16,19,12.40
2016,04,10,16,20,12.40
2016,04,10,16,21,12.30
2016,04,10,16,22,12.30
2016,04,10,16,23,12.30
2016,04,10,16,24,12.30
2016,04,10,16,25,12.30
2016,04,10,16,26,12.30
2016,04,10,16,27,12.30
2016,04,10,16,28,12.30
2016,04,10,16,29,12.30
2016,04,10,16,30,12.30
2016,04,10,16,31,12.30
2016,04,10,16,32,12.30
2016,04,10,16,33,12.40
2016,04,10,16,34,12.40
2016,04,10,16,35,12.40
2016,04,10,16,36,12.40
2016,04,10,16,37,12.50
2016,04,10,16,38,12.50
2016,04,10,16,39,12.70
2016,04,10,16,40,12.70
2016,04,10,16,41,12.80
2016,04,10,16,42,12.80
2016,04,10,16,43,12.80
2016,04,10,16,44,13.00
2016,04,10,16,45,13.00
2016,04,10,16,46,13.10
2016,04,10,16,47,13.20
2016,04,10,16,48,13.30
2016,04,10,16,49,13.30
2016,04,10,16,50,13.40
2016,04,10,16,51,13.50
2016,04,10,16,52,13.60
2016,04,10,16,53,13.70
2016,04,10,16,54,13.70
2016,04,10,16,55,13.70
2016,04,10,16,56,13.80
2016,04,10,16,57,13.80
2016,04,10,16,58,13.90
2016,04,10,16,59,13.90
2016,04,10,17,00,13.90
2016,04,10,17,01,14.00
2016,04,10,17,02,14.10
2016,04,10,17,03,14.20
2016,04,10,17,04,14.20
2016,04,10,17,05,14.30
2016,04,10,17,06,14.40
2016,04,10,17,07,14.40
2016,04,10,17,08,14.50
2016,04,10,17,09,14.50
2016,04,10,17,10,14.60
2016,04,10,17,11,14.60
2016,04,10,17,12,14.80
2016,04,10,17,13,14.90
2016,04,10,17,14,15.00
2016,04,10,17,15,15.10
2016,04,10,17,16,15.30
2016,04,10,17,17,15.30
2016,04,10,17,18,15.40
2016,04,10,17,19,15.40
2016,04,10,17,20,15.40
2016,04,10,17,21,15.30
2016,04,10,17,22,15.30
2016,04,10,17,23,15.20
2016,04,10,17,24,15.20
2016,04,10,17,25,15.20
2016,04,10,17,26,15.20
2016,04,10,17,27,15.20
2016,04,10,17,28,15.10
2016,04,10,17,29,15.10
2016,04,10,17,30,15.20
2016,04,10,17,31,15.20
2016,04,10,17,32,15.20
2016,04,10,17,33,15.30
2016,04,10,17,34,15.30
2016,04,10,17,35,15.30
2016,04,10,17,36,15.30
2016,04,10,17,37,15.30
2016,04,10,17,38,15.20
2016,04,10,17,39,15.20
2016,04,10,17,40,15.10
2016,04,10,17,41,15.10
2016,04,10,17,42,15.10
2016,04,10,17,43,15.10
2016,04,10,17,44,15.10